This is the latest recevied weather packets stored in our database for station/object E20YUC-1. If no packets are shown the sender has not sent any weather packets the latest 10 day(s).
| Time | Temp. | Humidity | Pressure | Rain* | Wind** | Luminosity | Snow |
|---|---|---|---|---|---|---|---|
| 1787578278 | 31.67° C | 61% | 995.9 hPa | 0 mm | 1.34 m/s, 0° | - | - |
| 1787577978 | 31.67° C | 61% | 996 hPa | 0 mm | 2.68 m/s, 0° | - | - |
| 1787577680 | 31.67° C | 62% | 996 hPa | 0 mm | 0.89 m/s, 0° | - | - |
| 1787577378 | 31.67° C | 62% | 995.9 hPa | 0 mm | 1.79 m/s, 0° | - | - |
| 1787577078 | 31.67° C | 62% | 995.7 hPa | 0 mm | 2.68 m/s, 0° | - | - |
| 1787576778 | 31.67° C | 62% | 995.7 hPa | 0 mm | 2.24 m/s, 0° | - | - |
| 1787576478 | 32.22° C | 62% | 995.8 hPa | 0 mm | 0.89 m/s, 0° | - | - |
| 1787576179 | 32.22° C | 62% | 995.7 hPa | 0 mm | 1.34 m/s, 0° | - | - |
| 1787575577 | 32.22° C | 62% | 995.6 hPa | 0 mm | 0.89 m/s, 0° | - | - |
| 1787575278 | 32.22° C | 62% | 995.5 hPa | 0 mm | 0.89 m/s, 0° | - | - |
| 1787574917 | 32.22° C | 62% | 995.4 hPa | 0 mm | 0 m/s | - | - |
| 1787574619 | 32.22° C | 61% | 995.3 hPa | 0 mm | 0 m/s | - | - |
| 1787574017 | 32.22° C | 61% | 995.1 hPa | 0 mm | 0.89 m/s, 0° | - | - |
| 1787573417 | 32.78° C | 60% | 995.1 hPa | 0 mm | 1.79 m/s, 0° | - | - |
| 1787573119 | 32.78° C | 60% | 995.1 hPa | 0 mm | 0.89 m/s, 0° | - | - |
| 1787572817 | 32.78° C | 60% | 995.1 hPa | 0 mm | 1.79 m/s, 0° | - | - |
| 1787572517 | 32.78° C | 59% | 995.1 hPa | 0 mm | 3.58 m/s, 0° | - | - |
| 1787572217 | 32.78° C | 59% | 995.1 hPa | 0 mm | 0 m/s | - | - |
| 1787571917 | 32.78° C | 59% | 994.9 hPa | 0 mm | 0.89 m/s, 0° | - | - |
| 1787571624 | 32.78° C | 59% | 994.9 hPa | 0 mm | 51.41 m/s, 0° | - | - |
| 1787571317 | 33.33° C | 58% | 994.9 hPa | 0 mm | 0 m/s | - | - |
| 1787571017 | 33.33° C | 58% | 994.8 hPa | 0 mm | 0 m/s | - | - |
| 1787570717 | 33.33° C | 58% | 994.7 hPa | 0 mm | 1.79 m/s, 0° | - | - |
| 1787570417 | 33.33° C | 57% | 994.5 hPa | 0 mm | 1.34 m/s, 0° | - | - |
| 1787570118 | 33.33° C | 57% | 994.4 hPa | 0 mm | 4.02 m/s, 0° | - | - |
* Rain latest hour (hover to see other rain measurements)
** Current wind speed in m/s (hover to see current wind gust speed)